Location: Vinland
(47.7731°N, 122.6974°W)
Time: 20:12:19
(UTC+00:00)

Vanguard 1 Rocket - Pass Details

Date: 27 March 2023
Orbit: 655 x 4220 km, 34.3° (Epoch: 05 June)

Event Time Altitude Azimuth Distance (km) Brightness Sun altitude
Rises 06:00:22 0° 227° (SW) 8,458 12.3 -31.6°
Reaches altitude 10° 06:06:58 10° 221° (SW) 7,358 11.9 -32.3°
Enters shadow 06:24:30 39° 182° (S) 4,556 10.4 -34.1°
